W0GEN-13 Weather Reports


time (UTC)temp
C
wind
direction
speed
KPH
gust
KPH
rain 1hr
cm
rain 24hr
cm
rain mn
cm
humidity
%
barometer
mb
20190519094031 13 249 30.6 38.6 0.00 3.28 0.00 100 996.3
20190519093531 15 244 24.1 32.2 0.00 3.28 0.00 100 996.0
20190519093030 15 194 29.0 32.2 0.00 3.28 0.00 100 996.0
20190519092531 15 219 29.0 30.6 0.00 3.28 0.00 100 996.0
20190519092030 15 215 12.9 30.6 0.00 3.28 0.00 100 996.0
20190519091531 15 207 24.1 32.2 0.00 3.28 0.00 100 996.1
20190519091031 15 185 16.1 32.2 0.00 3.28 0.00 100 996.3
20190519090531 15 213 25.7 30.6 0.00 3.28 0.00 100 996.2
20190519090031 15 190 16.1 32.2 0.00 3.28 0.00 100 996.1
20190519085531 15 207 27.4 33.8 0.00 3.28 0.00 100 996.4
20190519085031 15 185 22.5 33.8 0.00 3.28 0.00 100 996.3
20190519084530 15 173 30.6 30.6 0.00 3.28 0.00 100 996.3
20190519084034 15 207 17.7 33.8 0.00 3.28 0.00 100 996.3
20190519083531 15 196 11.3 33.8 0.00 3.28 0.00 100 996.3
20190519083030 15 202 12.9 33.8 0.00 3.28 0.00 100 996.3
20190519082531 15 170 14.5 35.4 0.00 3.28 0.00 100 996.3
20190519082031 15 180 20.9 35.4 0.00 3.28 0.00 100 996.3
20190519081531 15 156 11.3 33.8 0.00 3.28 0.00 100 996.3
20190519081030 16 154 16.1 33.8 0.00 3.28 0.00 100 996.2
20190519080531 16 161 20.9 30.6 0.00 3.28 0.00 100 996.3
20190519080034 16 168 17.7 45.1 0.00 3.28 0.00 100 996.3
20190519075530 16 164 19.3 45.1 0.00 3.28 0.00 100 996.5
20190519075031 17 175 12.9 25.7 0.00 3.28 0.00 100 996.4
20190519074530 17 155 19.3 29.0 0.00 3.28 0.00 100 996.4
20190519074030 17 143 6.4 29.0 0.00 3.28 0.00 100 996.4
20190519073531 17 133 9.7 20.9 0.00 3.28 0.00 100 996.3
20190519073030 17 117 16.1 24.1 0.00 3.28 0.00 100 996.4
20190519072530 17 131 9.7 24.1 0.00 3.28 0.00 100 996.4
20190519072031 17 163 8.0 19.3 0.00 3.28 0.00 100 996.6
20190519071530 17 147 6.4 19.3 0.00 3.28 0.00 100 996.7
20190519071031 17 159 8.0 25.7 0.00 3.28 0.00 100 996.8
20190519070530 17 137 11.3 25.7 0.00 3.28 0.00 100 996.9
20190519070031 17 112 4.8 20.9 0.00 3.28 0.00 100 997.0
20190519065531 17 144 9.7 20.9 0.00 3.28 0.00 100 997.4
20190519065030 17 105 6.4 20.9 0.00 3.28 0.00 100 997.5
20190519064531 17 146 14.5 25.7 0.00 3.28 0.00 100 997.7
20190519064031 17 170 9.7 32.2 0.00 3.28 0.00 100 997.9
20190519063531 17 127 12.9 32.2 0.00 3.28 0.00 100 997.9
20190519063030 17 144 8.0 27.4 0.00 3.28 0.00 100 997.9
20190519062530 17 151 11.3 25.7 0.00 3.28 0.00 100 998.0
20190519062030 17 109 11.3 25.7 0.00 3.28 0.00 100 998.1
20190519061530 17 118 20.9 25.7 0.00 3.28 0.00 100 998.2
20190519061030 17 107 17.7 24.1 0.00 3.28 0.00 100 998.3
20190519060530 17 144 6.4 22.5 0.00 3.28 0.00 100 998.3
20190519060031 16 70 3.2 25.7 0.00 3.28 0.00 100 998.4
20190519055531 16 116 12.9 25.7 0.00 3.28 0.00 100 998.5
20190519055031 16 121 8.0 20.9 0.00 3.28 0.00 100 998.3
20190519054530 16 77 3.2 20.9 0.00 3.28 0.00 100 998.4
20190519054030 16 98 4.8 17.7 0.00 3.28 0.00 100 998.4
20190519053531 16 98 11.3 20.9 0.00 3.28 0.00 100 998.4
20190519053031 16 90 8.0 24.1 0.00 3.28 0.00 100 998.4
20190519052530 16 69 4.8 24.1 0.00 3.28 0.00 100 998.4
20190519052032 16 80 14.5 22.5 0.00 3.28 0.00 100 998.6
20190519051531 16 93 8.0 22.5 0.00 3.28 0.00 100 998.7
20190519051031 16 90 8.0 22.5 0.00 3.28 0.00 100 998.7
20190519050531 16 69 4.8 14.5 0.00 3.28 0.00 100 998.9
20190519050031 16 84 3.2 14.5 0.00 3.28 0.00 100 998.9
20190519045530 16 55 3.2 14.5 0.03 3.28 3.28 100 998.8
20190519045031 16 56 8.0 19.3 0.03 3.28 3.28 100 998.9
20190519044531 16 57 11.3 24.1 0.05 3.28 3.28 100 999.1
20190519044035 16 55 14.5 27.4 0.05 3.28 3.28 100 998.9
20190519043530 17 52 8.0 27.4 0.05 3.28 3.28 100 999.0
20190519043030 17 55 19.3 25.7 0.08 3.28 3.28 100 999.1
20190519042530 17 38 12.9 25.7 0.08 3.28 3.28 100 999.1
20190519042031 17 37 12.9 25.7 0.08 3.28 3.28 100 999.0
20190519041530 17 30 20.9 24.1 0.08 3.28 3.28 100 999.3
20190519041030 17 67 17.7 19.3 0.08 3.28 3.28 100 999.6
20190519040530 17 44 14.5 19.3 0.08 3.28 3.28 100 999.8
20190519040031 17 49 11.3 19.3 0.08 3.28 3.28 100 999.8
20190519035530 17 33 9.7 16.1 0.05 3.25 3.25 100 999.5
20190519035030 16 28 8.0 19.3 0.08 3.25 3.25 100 999.7
20190519034530 16 48 4.8 19.3 0.05 3.23 3.23 100 999.6
20190519034031 16 43 11.3 16.1 0.05 3.23 3.23 100 999.6
20190519033531 16 50 11.3 16.1 0.08 3.23 3.23 100 999.7
20190519033030 16 44 6.4 16.1 0.05 3.20 3.20 100 1000.0
20190519032531 16 55 11.3 16.1 0.08 3.20 3.20 100 1000.3
20190519032030 16 65 16.1 16.1 0.08 3.20 3.20 100 1000.4
20190519031530 16 47 8.0 16.1 0.10 3.20 3.20 100 1000.5
20190519031030 16 31 6.4 19.3 0.10 3.20 3.20 100 1000.5
20190519030531 16 41 4.8 19.3 0.10 3.20 3.20 100 1000.6
20190519030031 16 85 8.0 19.3 0.13 3.20 3.20 100 1000.8
20190519025530 16 72 6.4 17.7 0.13 3.20 3.20 100 1000.5
20190519025030 16 65 17.7 17.7 0.10 3.17 3.17 100 1000.7
20190519024532 16 55 0.0 11.3 0.13 3.17 3.17 100 1000.7
20190519024031 16 47 6.4 11.3 0.15 3.17 3.17 100 1000.7
20190519023530 16 42 6.4 12.9 0.15 3.15 3.15 100 1000.8
20190519023031 16 42 4.8 16.1 0.18 3.15 3.15 100 1000.7
20190519022530 16 38 11.3 16.1 0.18 3.12 3.12 100 1000.9
20190519022030 17 55 8.0 17.7 0.25 3.12 3.12 100 1000.8
20190519021531 17 44 9.7 17.7 0.28 3.10 3.10 100 1001.0
20190519021030 17 80 8.0 16.1 0.36 3.10 3.10 100 1001.5
20190519020530 17 88 14.5 16.1 0.41 3.10 3.10 100 1001.8
20190519020030 17 81 4.8 8.0 0.46 3.07 3.07 100 1001.7
20190519015530 17 76 6.4 8.0 0.51 3.07 3.07 100 1001.5
20190519015030 17 69 4.8 9.7 0.56 3.07 3.07 100 1001.7
20190519014530 17 55 4.8 9.7 0.58 3.05 3.05 100 1001.7
20190519014031 16 16 6.4 8.0 0.61 3.02 3.02 100 1001.7
20190519013530 16 246 0.0 4.8 0.64 3.00 3.00 100 1001.8
20190519013031 17 236 4.8 6.4 0.64 2.97 2.97 100 1001.9
20190519012531 17 236 4.8 6.4 0.66 2.95 2.95 100 1002.1
20190519012030 17 211 3.2 6.4 0.61 2.87 2.87 100 1002.3
20190519011531 17 220 4.8 6.4 0.61 2.82 2.82 100 1002.5
20190519011030 17 218 3.2 6.4 0.61 2.74 2.74 100 1002.7
20190519010530 17 174 1.6 8.0 0.69 2.69 2.69 100 1002.8
20190519010031 17 164 3.2 9.7 0.91 2.62 2.62 100 1003.0
20190519005530 17 209 8.0 9.7 1.60 2.57 2.57 100 1002.7
20190519005031 17 207 9.7 9.7 1.96 2.51 2.51 100 1002.7
20190519004530 17 205 4.8 12.9 2.21 2.46 2.46 100 1002.7
20190519004033 17 223 8.0 16.1 2.26 2.41 2.41 100 1002.4
20190519003531 17 260 12.9 16.1 2.29 2.36 2.36 100 1002.4
20190519003030 17 258 9.7 16.1 2.29 2.34 2.34 100 1002.4
20190519002531 17 252 16.1 16.1 2.26 2.29 2.29 100 1002.3
20190519002030 17 259 9.7 14.5 2.24 2.26 2.26 100 1002.3
20190519001530 17 255 12.9 16.1 2.18 2.21 2.21 100 1002.4
20190519001030 17 248 11.3 19.3 2.11 2.13 2.13 100 1002.4
20190519000530 17 221 16.1 32.2 1.98 2.01 2.01 100 1002.4
20190519000030 17 250 12.9 37.0 1.68 1.70 1.70 100 1002.6
20190518235534 18 160 19.3 37.0 0.94 0.97 0.97 100 1002.9
20190518235030 18 171 17.7 25.7 0.53 0.56 0.56 100 1002.8
20190518234530 19 155 20.9 25.7 0.23 0.25 0.25 100 1002.6
20190518234031 20 146 19.3 27.4 0.13 0.15 0.15 100 1001.8
20190518233530 20 236 14.5 33.8 0.05 0.08 0.08 100 1001.4
20190518233031 22 209 9.7 33.8 0.03 0.05 0.05 100 1001.8
20190518232530 22 219 24.1 25.7 0.00 0.03 0.03 100 1001.6
20190518232030 22 157 6.4 19.3 0.00 0.03 0.03 100 1001.3
20190518231530 23 148 6.4 19.3 0.00 0.03 0.03 100 1001.2
20190518231030 23 144 9.7 12.9 0.00 0.03 0.03 100 1001.0
20190518230531 23 152 4.8 11.3 0.00 0.03 0.03 100 1001.0
20190518230030 23 182 8.0 12.9 0.00 0.03 0.03 100 1001.1
20190518225531 23 155 3.2 14.5 0.00 0.03 0.03 1 1001.0
20190518225031 23 176 12.9 20.9 0.00 0.03 0.03 4 1000.9
20190518224530 23 146 4.8 20.9 0.00 0.03 0.03 8 1001.0
20190518224030 23 134 8.0 14.5 0.00 0.03 0.03 10 1001.3
20190518223530 24 150 14.5 14.5 0.00 0.03 0.03 13 1001.5
20190518223031 24 145 9.7 14.5 0.00 0.03 0.03 15 1001.6
20190518222531 24 146 8.0 14.5 0.00 0.03 0.03 14 1001.3
20190518222030 24 170 4.8 19.3 0.00 0.03 0.03 15 1001.1
20190518221531 25 111 6.4 19.3 0.00 0.03 0.03 15 1001.2
20190518221030 25 152 6.4 12.9 0.00 0.03 0.03 12 1000.9
20190518220530 25 150 6.4 20.9 0.00 0.03 0.03 14 1001.1
20190518220030 25 142 8.0 22.5 0.00 0.03 0.03 16 1001.2
20190518215530 25 153 4.8 22.5 0.00 0.03 0.03 19 1001.4
20190518215030 25 160 8.0 22.5 0.00 0.03 0.03 21 1001.6
20190518214530 25 158 4.8 19.3 0.00 0.03 0.03 24 1001.7
20190518214030 25 125 9.7 25.7 0.00 0.03 0.03 25 1001.8
20190518213530 25 151 8.0 27.4 0.00 0.03 0.03 25 1001.8
20190518213030 25 159 19.3 27.4 0.00 0.03 0.03 26 1002.0
20190518212530 25 137 4.8 22.5 0.00 0.03 0.03 23 1002.0
20190518212030 25 147 17.7 22.5 0.00 0.03 0.03 25 1002.2
20190518211530 25 169 9.7 29.0 0.00 0.03 0.03 23 1002.2
20190518211030 25 140 6.4 29.0 0.00 0.03 0.03 16 1002.1
20190518210530 25 196 16.1 27.4 0.00 0.03 0.03 22 1002.0
20190518210031 25 141 4.8 27.4 0.00 0.03 0.03 13 1001.9
20190518205531 25 116 11.3 25.7 0.00 0.03 0.03 10 1001.9
20190518205030 25 159 11.3 29.0 0.00 0.03 0.03 11 1002.0
20190518204530 25 144 16.1 29.0 0.00 0.03 0.03 13 1002.0
20190518204030 25 166 29.0 29.0 0.00 0.03 0.03 1 1002.1
20190518203530 25 151 14.5 29.0 0.00 0.03 0.03 7 1002.2
20190518203030 25 124 16.1 29.0 0.00 0.03 0.03 13 1002.3
20190518202530 25 174 11.3 27.4 0.00 0.03 0.03 4 1002.4
20190518202030 25 130 11.3 33.8 0.00 0.03 0.03 100 1002.4
20190518201530 25 134 9.7 33.8 0.00 0.03 0.03 13 1002.5
20190518201030 25 155 9.7 32.2 0.00 0.03 0.03 9 1002.4
20190518200530 24 169 19.3 32.2 0.00 0.03 0.03 10 1002.3
20190518200030 24 130 14.5 29.0 0.00 0.03 0.03 1 1002.3
20190518195530 24 142 17.7 35.4 0.00 0.03 0.03 100 1002.4
20190518195030 24 153 17.7 35.4 0.00 0.03 0.03 1 1002.6
20190518194530 24 146 11.3 25.7 0.00 0.03 0.03 9 1002.6
20190518194031 24 146 19.3 33.8 0.00 0.03 0.03 3 1002.5
20190518193530 25 120 19.3 33.8 0.00 0.03 0.03 11 1002.3
20190518193030 25 146 20.9 32.2 0.00 0.03 0.03 7 1002.0
20190518192530 25 155 25.7 32.2 0.00 0.03 0.03 12 1002.1
20190518192030 26 170 8.0 32.2 0.00 0.03 0.03 9 1002.1
20190518191530 25 160 14.5 32.2 0.00 0.03 0.03 8 1002.0
20190518191030 25 121 11.3 25.7 0.00 0.03 0.03 100 1002.0
20190518190530 25 137 8.0 25.7 0.00 0.03 0.03 11 1002.2
20190518190030 25 180 9.7 25.7 0.00 0.03 0.03 7 1002.1
20190518185530 25 140 4.8 35.4 0.00 0.03 0.03 7 1002.1
20190518185030 25 190 19.3 35.4 0.00 0.03 0.03 3 1002.0
20190518184530 25 183 16.1 30.6 0.00 0.03 0.03 100 1002.1
20190518184031 24 157 6.4 29.0 0.00 0.03 0.03 100 1002.1
20190518183530 23 151 16.1 37.0 0.00 0.03 0.03 100 1002.1
20190518183030 23 110 29.0 37.0 0.00 0.03 0.03 100 1002.1
20190518182530 23 161 12.9 30.6 0.00 0.03 0.03 100 1002.0
20190518182030 23 144 17.7 30.6 0.00 0.03 0.03 100 1001.8
20190518181530 23 131 20.9 33.8 0.00 0.03 0.03 100 1001.8
20190518181030 23 123 16.1 35.4 0.00 0.03 0.03 100 1001.6
20190518180530 23 92 24.1 35.4 0.00 0.03 0.03 100 1001.7
20190518180030 23 179 9.7 27.4 0.00 0.03 0.03 100 1001.9
20190518175530 23 146 17.7 25.7 0.00 0.03 0.03 100 1001.8
20190518175030 23 164 9.7 29.0 0.00 0.03 0.03 100 1001.7
20190518174530 22 138 9.7 29.0 0.00 0.03 0.03 100 1001.8
20190518174030 22 126 14.5 29.0 0.00 0.05 0.03 100 1001.8
20190518173530 22 163 24.1 25.7 0.00 0.05 0.03 100 1001.8
20190518173030 22 150 6.4 25.7 0.00 0.05 0.03 100 1002.1
20190518172530 22 130 9.7 19.3 0.00 0.05 0.03 100 1002.1
20190518172030 22 142 6.4 35.4 0.00 0.05 0.03 100 1001.9
20190518171530 21 146 8.0 35.4 0.00 0.05 0.03 100 1001.8
20190518171030 21 152 9.7 32.2 0.00 0.05 0.03 100 1001.7
20190518170530 21 172 9.7 32.2 0.00 0.05 0.03 100 1001.5
20190518170031 20 87 3.2 35.4 0.00 0.05 0.03 100 1001.4
20190518165530 20 166 17.7 35.4 0.00 0.05 0.03 100 1001.5
20190518165030 20 177 12.9 41.8 0.00 0.05 0.03 100 1001.5
20190518164530 20 137 14.5 41.8 0.00 0.05 0.03 100 1001.6
20190518164030 20 163 11.3 29.0 0.00 0.08 0.03 100 1001.4
20190518163530 19 167 4.8 29.0 0.00 0.08 0.03 100 1001.7
20190518163031 18 124 9.7 29.0 0.00 0.08 0.03 100 1001.7
20190518162533 18 144 11.3 29.0 0.00 0.10 0.03 100 1001.6
20190518162030 18 125 17.7 27.4 0.00 0.13 0.03 100 1001.2
20190518161530 17 148 11.3 27.4 0.00 0.13 0.03 100 1001.5
20190518161030 16 97 24.1 32.2 0.00 0.15 0.03 100 1001.4
20190518160530 16 131 14.5 32.2 0.00 0.15 0.03 100 1001.5
20190518160030 16 130 22.5 30.6 0.00 0.18 0.03 100 1001.2
20190518155530 15 115 8.0 37.0 0.00 0.18 0.03 100 1001.1
20190518155030 15 111 27.4 37.0 0.00 0.20 0.03 100 1000.9
20190518154530 15 103 8.0 33.8 0.00 0.20 0.03 100 1001.1
20190518154030 16 123 24.1 35.4 0.00 0.23 0.03 100 1001.5
20190518153530 16 136 14.5 43.5 0.00 0.25 0.03 100 1002.2
20190518153030 16 99 35.4 43.5 0.00 0.25 0.03 100 1002.0
20190518152530 15 72 6.4 33.8 0.00 0.28 0.03 100 1002.6
20190518152030 15 78 4.8 24.1 0.00 0.30 0.03 100 1002.3
20190518151533 14 92 17.7 29.0 0.00 0.30 0.03 100 1002.3
20190518151030 14 131 6.4 29.0 0.00 0.33 0.03 100 1002.2
20190518150530 13 109 25.7 25.7 0.00 0.33 0.03 100 1001.9
20190518150030 13 109 11.3 19.3 0.00 0.33 0.03 100 1003.0
20190518145530 13 154 11.3 17.7 0.00 0.36 0.03 100 1003.3
20190518145030 12 146 12.9 17.7 0.00 0.36 0.03 100 1003.3
20190518144531 12 90 8.0 16.1 0.00 0.36 0.03 100 1003.4
20190518144031 12 110 8.0 20.9 0.00 0.36 0.03 100 1004.0
20190518143530 12 90 14.5 20.9 0.00 0.36 0.03 100 1004.4
20190518143030 12 125 11.3 20.9 0.00 0.36 0.03 100 1004.5
20190518142530 12 168 9.7 20.9 0.00 0.36 0.03 100 1004.5
20190518142030 12 146 8.0 22.5 0.03 0.36 0.03 100 1004.4
20190518141530 11 141 6.4 24.1 0.03 0.36 0.03 100 1004.3
20190518141030 11 112 16.1 27.4 0.03 0.36 0.03 100 1004.2
20190518140530 11 142 6.4 27.4 0.03 0.36 0.03 100 1004.4
20190518140030 11 117 4.8 20.9 0.03 0.36 0.03 100 1004.3
20190518135530 11 136 3.2 22.5 0.03 0.36 0.03 100 1004.3
20190518135030 11 146 8.0 22.5 0.03 0.36 0.03 100 1004.2
20190518134530 11 117 6.4 20.9 0.03 0.36 0.03 100 1004.1
20190518134030 11 121 6.4 17.7 0.03 0.36 0.03 100 1004.1
20190518133530 11 156 3.2 22.5 0.03 0.36 0.03 100 1004.1
20190518133030 11 146 12.9 22.5 0.03 0.36 0.03 100 1004.2
20190518132530 10 119 6.4 19.3 0.03 0.36 0.03 100 1004.2
20190518132030 10 78 4.8 20.9 0.00 0.33 0.00 100 1004.2
20190518131530 10 132 11.3 20.9 0.00 0.33 0.00 100 1004.5
20190518131030 10 130 12.9 20.9 0.00 0.33 0.00 100 1004.2
20190518130530 10 122 6.4 17.7 0.00 0.33 0.00 100 1004.4
20190518130030 10 116 8.0 17.7 0.00 0.33 0.00 100 1004.5
20190518125530 9 122 8.0 16.1 0.00 0.33 0.00 100 1004.6
20190518125030 9 114 11.3 19.3 0.00 0.33 0.00 100 1004.5
20190518124530 9 108 14.5 19.3 0.00 0.33 0.00 100 1004.6
20190518124030 9 113 14.5 22.5 0.00 0.33 0.00 100 1004.5
20190518123530 9 109 11.3 22.5 0.00 0.33 0.00 100 1004.5
20190518123030 9 85 11.3 22.5 0.00 0.33 0.00 100 1004.4
20190518122530 9 119 17.7 22.5 0.00 0.33 0.00 100 1004.5
20190518122030 9 104 12.9 19.3 0.00 0.33 0.00 100 1004.3
20190518121530 9 92 8.0 20.9 0.00 0.33 0.00 100 1004.6
20190518121030 9 123 11.3 24.1 0.00 0.33 0.00 100 1004.8
20190518120530 9 134 8.0 27.4 0.00 0.33 0.00 100 1004.6
20190518120030 9 95 14.5 27.4 0.00 0.33 0.00 100 1004.4
20190518115530 9 90 12.9 24.1 0.00 0.33 0.00 100 1004.6
20190518115030 9 111 16.1 24.1 0.00 0.33 0.00 100 1004.3
20190518114530 9 84 12.9 35.4 0.00 0.33 0.00 100 1004.4
20190518114030 9 121 6.4 35.4 0.00 0.33 0.00 100 1004.5
20190518113530 9 91 24.1 35.4 0.00 0.33 0.00 100 1004.4
20190518113030 9 107 19.3 27.4 0.00 0.33 0.00 100 1004.3
20190518112530 9 86 14.5 30.6 0.00 0.33 0.00 100 1004.4
20190518112030 9 101 14.5 30.6 0.00 0.33 0.00 100 1004.5
20190518111530 9 126 17.7 29.0 0.00 0.33 0.00 100 1004.5
20190518111030 9 96 24.1 29.0 0.00 0.33 0.00 100 1004.3
20190518110530 9 121 8.0 27.4 0.00 0.33 0.00 100 1004.5
20190518110030 9 119 19.3 27.4 0.00 0.33 0.00 100 1004.6
20190518105530 9 92 17.7 27.4 0.00 0.33 0.00 100 1004.5
20190518105030 9 105 11.3 33.8 0.00 0.33 0.00 100 1004.6
20190518104530 9 78 6.4 33.8 0.00 0.36 0.00 100 1004.6
20190518104030 9 86 11.3 30.6 0.00 0.38 0.00 100 1004.6
20190518103530 9 100 12.9 25.7 0.00 0.38 0.00 100 1004.6
20190518103030 9 148 14.5 27.4 0.00 0.41 0.00 100 1004.7
20190518102530 9 105 19.3 27.4 0.00 0.43 0.00 100 1004.7
20190518102033 9 85 12.9 27.4 0.00 0.46 0.00 100 1004.6
20190518101530 9 107 20.9 37.0 0.00 0.48 0.00 100 1004.6
20190518101030 9 106 17.7 37.0 0.00 0.53 0.00 100 1004.8
20190518100530 10 71 20.9 30.6 0.00 0.58 0.00 100 1005.0
20190518100030 10 104 19.3 35.4 0.00 0.64 0.00 100 1005.1
20190518095530 10 88 1.6 35.4 0.00 0.66 0.00 100 1004.8
20190518095030 10 122 19.3 30.6 0.00 0.69 0.00 100 1005.3
20190518094530 10 108 19.3 27.4 0.00 0.74 0.00 100 1005.1